Location: Little Elm
(33.1626°N, 96.9375°W)
Time: 19:41:34
(UTC+00:00)

Envisat - Pass Details

Date: 18 May 2022
Orbit: 764 x 765 km, 98.2° (Epoch: 25 June)

Event Time Altitude Azimuth Distance (km) Brightness Sun altitude
Rises 09:51:22 0° 34° (NE) 3,233 7.7 -17.7°
Reaches altitude 10° 09:54:35 10° 56° (NE) 2,302 6.8 -17.2°
Maximum altitude 09:57:40 16° 93° (E) 1,904 5.7 -16.7°
Drops below altitude 10° 10:00:45 10° 131° (SE) 2,292 5.6 -16.2°
Sets 10:03:55 0° 153° (SSE) 3,213 6.1 -15.6°
